TUBIN
1 48900U 21059X   25241.28301209  .00071325  00000-0  64704-3 0  9999
2 48900  97.6785  57.5137 0002485 281.2661  78.8320 15.67797531232655
LEDSAT
1 49069U 21073D   25241.17846238  .00176280  00000-0  11947-2 0  9992
2 49069  97.3802 326.7612 0006817 153.9694 206.1915 15.74449409224059
CUTE
1 49263U 21088D   25241.19281379  .00053803  00000-0  93666-3 0  9999
2 49263  97.4449 319.9630 0004877 303.3625  56.7159 15.50588313216902
TeikyoSat 4
1 49396U 21102B   25241.05109863  .00003420  00000-0  22634-3 0  9992
2 49396  97.4047 276.5661 0011667 211.2201 148.8336 15.07937615208677
Z-Sat
1 49399U 21102E   25241.21413781  .00005274  00000-0  28480-3 0  9994
2 49399  97.3741 280.3311 0017998 178.8702 181.2574 15.15000384209187
KOSEN 1
1 49402U 21102H   25241.07751576  .00010391  00000-0  46640-3 0  9994
2 49402  97.3640 284.2383 0016503 152.1820 208.0302 15.21242767209524
HO-113
1 50466U 21131B   25241.31523836  .00000731  00000-0  24156-3 0  9996
2 50466  98.5090 330.2717 0003113 246.4141 113.6721 14.40895619193075
SNUGLITE 2
1 52899U 22065F   25240.83633910  .00001636  00000-0  32563-3 0  9992
2 52899  98.1800  22.0835 0006889 213.9846 146.0916 14.63380402168222
UmKA 1 (RS40S)
1 57172U 23091G   25241.27901871  .00007813  00000-0  40706-3 0  9995
2 57172  97.5508 296.2525 0015388  59.8900 300.3856 15.16165909119701
CubeBel-2 (EU11S)
1 57175U 23091K   25241.21686067  .00013647  00000-0  62287-3 0  9999
2 57175  97.5506 297.8558 0013030  66.4206 293.8396 15.20652601119801
ENSO
1 58470U 23185J   25241.32008667  .00118368  00000-0  11514-2 0  9990
2 58470  97.3649 319.5283 0006291 152.4739 207.6855 15.65882994 97628
EIRSAT-1
1 58472U 23185L   25239.67952054  .00781410  29239-3  14265-2 0  9993
2 58472  97.3482 321.9424 0007544 237.6011 122.4539 16.01392532 97640
SONATE-2
1 59112U 24043Q   25241.29360479  .00026567  00000-0  70488-3 0  9991
2 59112  97.5231  14.2733 0010595 181.2572 178.8648 15.38227540 82732
MO-122
1 60209U 24125G   25241.09000377  .00026877  00000-0  69929-3 0  9999
2 60209  97.2706  91.9160 0017040 202.3760 157.6744 15.38731566 64322
GRBBeta
1 60237U 24128C   25241.17359032  .00007214  00000-0  52674-3 0  9990
2 60237  61.9912 158.4256 0056467  74.8798 285.8531 15.03249600 62314
Curium One
1 60242U 24128H   25241.19909475  .00013077  00000-0  86945-3 0  9992
2 60242  61.9805 155.3589 0056522  71.5280 289.1944 15.06183408 62375
ROBUSTA-3A
1 60243U 24128J   25241.29432297  .00013318  00000-0  89896-3 0  9993
2 60243  61.9876 156.1338 0055618  69.2208 291.4831 15.05655528 62371
CatSat
1 60246U 24125J   25241.13883420  .00027200  00000-0  84729-3 0  9999
2 60246  97.2520  90.2265 0041250 164.7738 195.4756 15.32387029 62316
HYPERVIEW-1G (RS66S)
1 61772U 24199AP  25241.27858391  .00030400  00000-0  79680-3 0  9995
2 61772  97.3403 110.0853 0010529 260.2566  99.7490 15.38575227 89351
AO-123
1 61781U 24199AY  25241.21694545  .00009531  00000-0  33667-3 0  9994
2 61781  97.3425 107.9434 0013587 272.1011  87.8674 15.29333115 89203
ZIMSAT 2
1 61783U 24199BA  25241.25542318  .00062339  00000-0  12464-2 0  9996
2 61783  97.3365 111.4267 0009402 250.3125 109.7111 15.46535455 92593
HADES-R (SO-124)
1 62690U 25009CK  25241.16248507  .00062633  00000-0  18510-2 0  9993
2 62690  97.4034 321.9296 0003737 166.4781 193.6563 15.34706647 34482
HYDRA-T
1 62692U 25009CM  25241.19609462  .00066151  00000-0  19281-2 0  9994
2 62692  97.4033 322.0366 0003599 163.1538 196.9825 15.35125836 34497
JINJUSat 1B
1 63210U 25052A   25241.23083624  .00017013  00000-0  74122-3 0  9999
2 63210  97.4292 134.3709 0005811  58.2686 301.9116 15.22254580 25512
NUSHSAT 1
1 63211U 25052B   25241.27494478  .00019196  00000-0  82550-3 0  9995
2 63211  97.4279 134.4423 0005961  62.1370 298.0470 15.22671240 25528
TEVEL2-4
1 63213U 25052D   25241.24042261  .00018270  00000-0  79481-3 0  9994
2 63213  97.4197 134.1563 0005431  75.4028 284.7810 15.22290359 25517
TEVEL2-5
1 63214U 25052E   25241.24236786  .00018564  00000-0  80834-3 0  9992
2 63214  97.4197 134.1542 0005408  75.3009 284.8827 15.22256598 25513
TEVEL2-6
1 63215U 25052F   25241.24662064  .00018418  00000-0  80294-3 0  9993
2 63215  97.4198 134.1510 0005495  76.2538 283.9310 15.22216641 25515
TEVEL2-1
1 63217U 25052H   25241.26981669  .00017450  00000-0  76649-3 0  9996
2 63217  97.4176 134.0667 0005762  84.3325 275.8568 15.21969486 25512
TEVEL2-3
1 63218U 25052J   25241.26996268  .00017548  00000-0  77063-3 0  9997
2 63218  97.4174 134.0681 0005755  84.8032 275.3861 15.21977300 25514
TEVEL2-2
1 63219U 25052K   25241.27048666  .00017669  00000-0  77612-3 0  9993
2 63219  97.4168 134.0663 0005811  84.8207 275.3693 15.21966904 25516
TEVEL2-9
1 63237U 25052AD  25241.20402434  .00016638  00000-0  75832-3 0  9990
2 63237  97.4237 133.8378 0010108  93.5549 266.6843 15.20684058 25486
TEVEL2-7
1 63238U 25052AE  25241.21005297  .00016587  00000-0  75774-3 0  9996
2 63238  97.4238 133.8336 0010210  93.4317 266.8087 15.20603506 25489
TEVEL2-8
1 63239U 25052AF  25241.21372506  .00016442  00000-0  75182-3 0  9990
2 63239  97.4239 133.8272 0010224  93.6940 266.5465 15.20572713 25481
HYDRA-W
1 63490U 25052BL  25239.67757345  .00037995  00000-0  14241-2 0  9998
2 63490  97.4181 133.1639 0013841  94.2277 266.0544 15.27065152 25310
HADES-ICM (SO-125)
1 63492U 25052BN  25241.22815854  .00039791  00000-0  15158-2 0  9998
2 63492  97.4188 134.6179 0014079  93.2379 267.0471 15.26513624 25546
